Change the Weather History Date:

Wednesday, November 13, 2013

  Actual Average Record
Temperature  
Mean Temperature 37 °F -  
Max Temperature 53 °F 38 °F 71 °F (1999)
Min Temperature 21 °F 23 °F -4 °F (1986)
Degree Days  
Heating Degree Days 28    
Moisture  
Dew Point 26 °F    
Average Humidity 68    
Maximum Humidity 87    
Minimum Humidity 44    
Precipitation  
Precipitation 0.00 in - - ()
Sea Level Pressure  
Sea Level Pressure 30.03 in    
Wind  
Wind Speed 0 mph (SW)    
Max Wind Speed 4 mph    
Max Gust Speed -    
Visibility 10 miles    
Events      
Averages and records for this station are not official NWS values.
T = Trace of Precipitation, MM = Missing Value Source: NWS Daily Summary

Daily Weather History Graph

Daily Weather History Graph

Search for Another Location

Airport or City:

Trip Planner

Search our weather history database for the weather conditions in past years. The results will help you decide how hot, cold, wet, or windy it might be!

Date:

Astronomy

Nov. 13, 2013 Rise Set
Actual Time 7:13 AM CST 4:50 PM CST
Civil Twilight 6:41 AM CST 5:22 PM CST
Nautical Twilight 6:06 AM CST 5:57 PM CST
Astronomical Twilight 5:31 AM CST 6:32 PM CST
Moon 2:47 PM CST (11/13) 2:57 AM CST (11/13)
Length of Visible Light 10h 40m
Length of Day
9h 37m
Waxing Gibbous, 85% of the Moon is Illuminated
Nov 13
Waxing Gibbous
Nov 17
Full
Nov 25
Last Quarter
Dec 2
New
Dec 9
First Quarter

Hourly Weather History & Observations

Time (CST) Temp. Windchill Dew Point Humidity Pressure Visibility Wind Dir Wind Speed Gust Speed Precip Events Conditions
12:12 AM 21.2 °F - 15.8 °F 80% 30.37 in 10.0 mi Calm Calm - N/A   Clear
12:33 AM 21.2 °F - 15.8 °F 80% 30.36 in 10.0 mi Calm Calm - N/A   Clear
12:53 AM 21.2 °F - 15.8 °F 80% 30.35 in 10.0 mi Calm Calm - N/A   Clear
1:12 AM 23.0 °F - 15.8 °F 74% 30.33 in 10.0 mi Calm Calm - N/A   Clear
1:33 AM 23.0 °F - 15.8 °F 74% 30.32 in 10.0 mi Calm Calm - N/A   Clear
1:53 AM 23.0 °F - 15.8 °F 74% 30.31 in 10.0 mi Calm Calm - N/A   Clear
2:12 AM 23.0 °F - 15.8 °F 74% 30.29 in 10.0 mi Calm Calm - N/A   Clear
2:33 AM 23.0 °F - 15.8 °F 74% 30.28 in 10.0 mi Calm Calm - N/A   Clear
2:53 AM 23.0 °F - 15.8 °F 74% 30.27 in 10.0 mi Calm Calm - N/A   Clear
3:13 AM 23.0 °F - 15.8 °F 74% 30.26 in 10.0 mi Calm Calm - N/A   Clear
3:33 AM 23.0 °F - 15.8 °F 74% 30.25 in 10.0 mi Calm Calm - N/A   Clear
3:52 AM 24.8 °F - 15.8 °F 69% 30.25 in 10.0 mi Calm Calm - N/A   Clear
4:13 AM 23.0 °F - 15.8 °F 74% 30.23 in 10.0 mi Calm Calm - N/A   Clear
4:33 AM 21.2 °F - 15.8 °F 80% 30.20 in 10.0 mi Calm Calm - N/A   Clear
4:52 AM 21.2 °F - 15.8 °F 80% 30.19 in 10.0 mi Calm Calm - N/A   Clear
5:13 AM 21.2 °F - 17.6 °F 86% 30.17 in 10.0 mi Calm Calm - N/A   Clear
5:33 AM 21.2 °F - 17.6 °F 86% 30.15 in 10.0 mi Calm Calm - N/A   Clear
5:53 AM 24.8 °F - 17.6 °F 74% 30.14 in 10.0 mi Calm Calm - N/A   Clear
6:13 AM 24.8 °F - 17.6 °F 74% 30.12 in 10.0 mi Calm Calm - N/A   Clear
6:33 AM 24.8 °F - 17.6 °F 74% 30.13 in 10.0 mi Calm Calm - N/A   Clear
6:53 AM 24.8 °F - 19.4 °F 80% 30.11 in 10.0 mi Calm Calm - N/A   Clear
7:13 AM 24.8 °F - 19.4 °F 80% 30.11 in 10.0 mi Calm Calm - N/A   Clear
7:33 AM 24.8 °F - 19.4 °F 80% 30.10 in 10.0 mi Calm Calm - N/A   Clear
7:52 AM 26.6 °F - 19.4 °F 74% 30.10 in 10.0 mi Calm Calm - N/A   Clear
8:13 AM 28.4 °F - 21.2 °F 74% 30.10 in 10.0 mi Calm Calm - N/A   Clear
8:33 AM 28.4 °F - 21.2 °F 74% 30.09 in 10.0 mi Calm Calm - N/A   Clear
8:53 AM 30.2 °F - 21.2 °F 69% 30.08 in 10.0 mi Calm Calm - N/A   Clear
9:13 AM 32.0 °F - 23.0 °F 69% 30.07 in 10.0 mi Calm Calm - N/A   Clear
9:33 AM 33.8 °F - 24.8 °F 70% 30.06 in 10.0 mi Calm Calm - N/A   Clear
9:53 AM 35.6 °F - 24.8 °F 65% 30.04 in 10.0 mi Calm Calm - N/A   Clear
10:13 AM 37.4 °F - 24.8 °F 60% 30.03 in 10.0 mi Calm Calm - N/A   Clear
10:33 AM 39.2 °F - 26.6 °F 61% 30.00 in 10.0 mi Calm Calm - N/A   Clear
10:53 AM 41.0 °F - 26.6 °F 57% 30.01 in 10.0 mi Calm Calm - N/A   Clear
11:13 AM 42.8 °F - 26.6 °F 53% 30.00 in 10.0 mi Calm Calm - N/A   Clear
11:33 AM 42.8 °F - 26.6 °F 53% 29.99 in 10.0 mi Calm Calm - N/A   Clear
11:52 AM 44.6 °F - 28.4 °F 53% 29.99 in 10.0 mi Calm Calm - N/A   Clear
12:13 PM 46.4 °F - 28.4 °F 50% 29.97 in 10.0 mi Calm Calm - N/A   Clear
12:33 PM 46.4 °F 45.2 °F 28.4 °F 50% 29.96 in 10.0 mi SW 3.5 mph - N/A   Clear
12:52 PM 48.2 °F - 28.4 °F 46% 29.94 in 10.0 mi Calm Calm - N/A   Clear
1:13 PM 48.2 °F - 28.4 °F 46% 29.94 in 10.0 mi Calm Calm - N/A   Clear
1:33 PM 50.0 °F - 30.2 °F 47% 29.93 in 10.0 mi Calm Calm - N/A   Clear
1:53 PM 51.8 °F - 30.2 °F 44% 29.91 in 10.0 mi Calm Calm - N/A   Clear
2:12 PM 51.8 °F - 30.2 °F 44% 29.91 in 10.0 mi Calm Calm - N/A   Clear
2:33 PM 53.6 °F - 32.0 °F 44% 29.90 in 10.0 mi Calm Calm - N/A   Clear
2:53 PM 53.6 °F - 32.0 °F 44% 29.89 in 10.0 mi Calm Calm - N/A   Clear
3:12 PM 53.6 °F - 32.0 °F 44% 29.90 in 10.0 mi Calm Calm - N/A   Clear
3:33 PM 53.6 °F - 33.8 °F 47% 29.90 in 10.0 mi Calm Calm - N/A   Clear
3:52 PM 51.8 °F - 33.8 °F 50% 29.90 in 10.0 mi Calm Calm - N/A   Clear
4:13 PM 51.8 °F - 33.8 °F 50% 29.89 in 10.0 mi Calm Calm - N/A   Clear
4:33 PM 48.2 °F - 33.8 °F 58% 29.89 in 10.0 mi Calm Calm - N/A   Clear
4:52 PM 48.2 °F - 33.8 °F 58% 29.90 in 10.0 mi Calm Calm - N/A   Clear
5:13 PM 46.4 °F - 33.8 °F 62% - 10.0 mi Calm Calm - N/A   Clear
5:33 PM 44.6 °F - 33.8 °F 66% 29.89 in 10.0 mi Calm Calm - N/A   Clear
5:52 PM 44.6 °F - 33.8 °F 66% 29.89 in 10.0 mi Calm Calm - N/A   Clear
6:13 PM 44.6 °F - 33.8 °F 66% 29.89 in 10.0 mi Calm Calm - N/A   Clear
6:33 PM 44.6 °F - 33.8 °F 66% 29.89 in 10.0 mi Calm Calm - N/A   Clear
6:52 PM 42.8 °F - 33.8 °F 70% 29.89 in 10.0 mi Calm Calm - N/A   Clear
7:13 PM 42.8 °F - 33.8 °F 70% 29.89 in 10.0 mi Calm Calm - N/A   Clear
7:33 PM 42.8 °F - 33.8 °F 70% 29.89 in 10.0 mi Calm Calm - N/A   Clear
7:52 PM 42.8 °F - 33.8 °F 70% 29.89 in 10.0 mi Calm Calm - N/A   Clear
8:13 PM 42.8 °F - 33.8 °F 70% 29.88 in 10.0 mi Calm Calm - N/A   Clear
8:32 PM 42.8 °F - 33.8 °F 70% 29.88 in 10.0 mi Calm Calm - N/A   Clear
8:53 PM 41.0 °F - 33.8 °F 76% 29.88 in 10.0 mi Calm Calm - N/A   Clear
9:13 PM 39.2 °F - 33.8 °F 81% 29.88 in 10.0 mi Calm Calm - N/A   Clear
9:33 PM 39.2 °F - 33.8 °F 81% 29.88 in 10.0 mi Calm Calm - N/A   Clear
9:53 PM 37.4 °F - 33.8 °F 87% 29.88 in 10.0 mi Calm Calm - N/A   Clear
10:13 PM 39.2 °F - 33.8 °F 81% 29.87 in 10.0 mi Calm Calm - N/A   Clear
10:33 PM 37.4 °F - 33.8 °F 87% 29.87 in 10.0 mi Calm Calm - N/A   Clear
10:52 PM 37.4 °F - 33.8 °F 87% 29.86 in 10.0 mi Calm Calm - N/A   Clear
11:13 PM 37.4 °F - 33.8 °F 87% 29.86 in 10.0 mi Calm Calm - N/A   Clear
11:33 PM 37.4 °F - 33.8 °F 87% 29.86 in 10.0 mi Calm Calm - N/A   Clear
11:52 PM 37.4 °F - 33.8 °F 87% 29.86 in 10.0 mi Calm Calm - N/A   Clear